SCP
0 0 0 0 0 0 0 0 0 0 0 0 0 0 0 0 0 0 0 0 0 0 0 0 0 0 0 0 0 0 1 1 1 0 0 0 0 0 0 0 0 0 0 0
0 0 0 0 0 0 0 0 0 0 0 0 0 0 0 0 0 0 0 0 0 0 0 0 0 0 0 0 0 0 1 1 1 0 0 0 0 0 0 0 0 0 0 0
0 0 0 0 0 0 0 0 0 0 0 0 0 0 0 0 0 0 0 0 0 0 0 0 0 0 0 0 0 0 0 1 1 0 0 0 0 0 0 0 0 0 0 0
0 0 0 0 0 0 0 0 0 0 0 0 0 0 0 0 0 0 0 0 0 0 0 0 0 0 0 0 0 0 0 0 0 0 0 0 0 0 0 0 0 0 0 0
0 0 0 0 0 0 0 0 0 0 0 0 0 0 0 0 0 0 0 0 0 0 0 0 0 0 0 0 0 0 0 0 0 0 0 0 0 0 0 0 0 0 0 0
0 0 0 0 0 0 0 0 0 0 0 0 0 0 0 0 0 0 0 0 0 0 0 0 0 0 0 0 0 0 0 0 0 0 0 0 0 0 0 0 0 0 0 0
0 0 0 0 0 0 0 0 0 0 0 0 0 0 0 0 0 0 0 0 0 0 0 0 0 0 0 0 0 0 0 0 0 0 0 0 0 0 0 0 0 0 0 0
0 0 0 0 0 0 0 0 0 0 0 0 0 0 0 0 0 0 0 0 0 0 0 0 0 0 0 0 0 0 0 0 0 0 0 0 0 0 0 0 0 0 0 0
0 0 0 0 0 0 0 0 0 0 0 0 0 0 0 0 0 0 0 0 0 0 0 0 0 0 0 0 0 0 0 0 0 0 0 0 0 0 0 0 0 0 0 0
0 0 0 0 0 0 0 0 0 0 0 0 0 0 0 0 0 0 0 0 0 0 0 0 0 0 0 0 0 0 0 0 0 0 0 0 0 0 0 0 0 0 0 0
0 0 0 0 0 0 0 0 0 0 0 0 0 0 0 0 0 0 0 0 0 0 0 0 0 0 0 0 0 0 0 0 0 0 0 0 0 0 0 0 0 0 0 0
0 0 0 0 0 0 0 0 0 0 0 0 0 0 0 0 0 0 0 0 0 0 0 0 0 0 0 0 0 0 0 0 0 0 0 0 0 0 0 0 0 0 0 0
0 0 0 0 0 0 0 0 0 0 0 0 0 0 0 0 0 0 0 0 0 0 0 0 0 0 0 0 0 0 0 0 0 0 0 0 0 0 0 0 0 0 0 0
0 0 0 0 0 0 0 0 0 -0 -0 0 0 0 0 0 0 0 0 0 0 0 0 0 0 0 0 0 0 0 0 0 0 0 0 0 0 0 0 0 0 0 0 0
0 0 0 0 0 0 0 0 0 0 0 -0 0 0 0 0 0 0 0 0 0 0 0 0 0 0 0 0 0 0 0 0 0 0 0 0 0 0 0 0 0 0 0 0
0 0 0 0 0 0 0 0 0 0 0 0 0 0 0 -0 -0 -0 0 0 0 0 0 0 0 0 0 0 0 0 0 0 0 0 0 0 0 0 0 0 0 0 0 0
0 0 0 0 0 0 0 0 0 0 0 0 0 0 0 -0 -0 -0 0 0 0 0 0 0 0 0 0 0 0 0 0 0 0 0 0 0 0 0 0 0 0 0 0 0
0 0 0 0 0 0 0 0 0 0 0 0 0 0 0 -0 -0 -0 0 0 0 0 0 0 0 0 0 0 0 0 0 0 0 0 0 0 0 0 0 0 0 0 0 0
0 -0 0 0 0 0 0 0 0 0 0 0 0 0 0 0 0 0 0 0 0 0 0 0 0 0 0 0 0 0 0 0 0 0 0 0 0 0 0 0 0 0 0 0
0 -0 0 0 0 0 0 0 0 0 0 0 0 0 0 0 0 0 0 0 0 0 0 0 0 0 0 0 0 0 0 0 0 0 0 0 0 0 0 0 0 0 0 0
0 -0 -0 0 0 0 0 0 0 0 0 0 0 0 0 0 0 0 0 0 0 0 0 0 0 0 0 0 0 0 0 0 0 0 0 0 0 0 0 0 0 0 0 0
0 -0 -0 -0 0 0 0 0 0 0 0 0 0 0 0 0 0 0 0 0 0 0 0 0 0 0 0 0 0 0 0 0 0 0 0 0 0 0 0 0 0 0 0 0
0 -0 -0 -0 0 0 0 0 0 0 0 0 0 0 0 0 0 0 0 0 0 0 0 0 0 0 0 0 0 0 0 0 0 0 0 0 0 0 0 0 0 0 0 0
0 0 0 0 0 0 0 0 0 0 0 0 0 0 0 0 0 0 0 0 0 0 0 0 0 0 0 0 0 0 0 0 0 0 0 0 0 0 0 0 0 0 0 0
0 0 0 0 0 0 0 0 0 0 0 0 0 0 0 0 0 0 0 0 0 0 0 0 0 0 0 0 0 0 0 0 0 0 0 0 0 0 0 0 0 0 0 0
0 0 0 0 0 0 0 0 0 0 0 0 0 0 0 0 0 0 0 0 0 0 0 0 0 0 0 0 0 0 0 0 0 0 0 0 0 0 0 0 0 0 0 0
Wind_Speed
2 4 2 5 5 4 2 3 6 7 4 1 1 2 5 5 6 5 4 3 2 2 2 0 1 2 2 2 3 4 4 4 4 3 3 3 2 1 1 1 2 2 2 2
4 3 6 3 1 1 1 3 4 5 3 1 1 2 3 4 4 3 3 3 4 3 3 1 1 1 2 2 3 3 4 4 4 4 3 2 2 1 1 1 1 2 3 3
3 4 2 1 2 2 2 2 4 4 3 3 2 4 4 4 4 5 4 3 3 3 2 2 2 2 2 2 4 5 5 4 4 4 3 2 2 1 0 0 1 2 2 2
1 3 2 3 3 1 4 4 3 1 1 2 2 1 4 5 6 8 8 6 4 4 3 2 1 2 2 3 3 4 5 4 4 4 4 4 3 3 3 2 1 1 1 1
2 3 4 4 4 2 3 3 2 1 2 2 3 1 5 4 6 8 8 7 6 5 4 2 1 1 1 2 2 3 3 3 3 3 4 4 3 2 1 1 1 1 1 1
3 3 1 2 4 2 2 4 4 4 4 2 2 1 4 3 4 7 7 7 7 6 5 5 3 2 1 1 2 2 3 2 3 3 3 5 5 4 2 1 1 1 1 1
7 6 5 3 4 6 7 6 6 7 5 3 2 1 4 4 4 5 7 7 6 5 5 4 4 3 2 0 1 2 2 2 2 2 2 3 4 4 4 3 3 2 1 1
4 6 5 4 2 2 3 5 4 2 3 5 3 1 4 3 5 6 5 4 5 5 5 4 4 3 2 1 1 2 2 2 2 2 2 2 3 3 3 3 3 3 2 2
1 5 5 4 3 2 2 2 2 4 0 2 4 3 4 5 8 8 8 6 6 6 6 5 4 3 2 1 2 2 2 2 2 2 2 1 2 2 3 2 2 2 2 2
1 3 5 5 5 6 3 3 4 4 1 3 4 3 4 7 8 9 9 7 7 7 6 5 3 3 2 1 1 1 2 2 2 2 2 2 2 2 2 2 2 2 3 2
2 1 5 5 4 3 4 4 4 2 2 2 3 5 2 4 6 7 8 6 6 7 6 5 4 3 2 1 0 1 1 1 1 2 2 1 1 2 2 2 2 2 2 2
2 3 2 4 3 1 1 1 3 2 2 1 2 7 4 5 6 6 7 6 6 5 4 4 4 3 2 1 0 0 1 1 1 2 2 1 1 1 2 2 2 2 3 3
2 4 3 7 7 5 4 2 2 3 2 1 1 7 5 7 8 7 7 7 6 6 5 5 4 3 2 1 1 1 1 1 1 2 2 2 1 1 2 2 2 2 2 3
4 3 4 3 5 3 4 4 2 3 1 2 4 8 9 10 10 10 8 7 6 5 5 5 5 4 3 2 1 1 1 1 1 1 2 1 1 2 2 2 2 2 2 2
4 1 2 4 4 2 2 4 3 0 3 4 6 7 8 8 9 8 6 6 6 5 5 6 6 5 4 2 1 1 1 0 1 1 1 1 1 1 1 0 1 1 1 1
3 1 1 3 2 2 2 4 3 2 2 3 5 7 6 7 6 6 6 6 5 5 5 6 6 5 4 2 2 2 1 1 1 1 1 1 0 0 0 0 0 1 2 1
1 2 1 3 5 3 3 3 2 2 2 2 4 7 7 8 8 7 6 5 5 5 5 5 5 5 4 3 2 2 2 1 1 1 1 0 1 1 0 0 1 2 1 2
4 3 2 1 4 2 5 2 2 3 3 2 4 6 6 6 7 6 4 3 5 5 5 5 5 5 4 3 2 2 2 0 0 1 0 0 1 1 1 2 2 1 1 1
3 5 3 2 1 5 5 3 1 2 4 2 4 7 7 6 5 4 3 3 4 5 5 5 5 4 3 3 2 1 1 0 0 0 1 1 1 1 1 1 0 0 1 1
4 4 4 2 1 4 5 5 3 0 4 4 4 6 7 5 4 6 5 5 5 5 4 4 4 4 3 3 2 1 1 0 1 2 2 2 1 1 1 1 0 1 1 0
3 3 1 2 3 6 5 5 2 1 6 7 5 6 5 4 5 7 7 6 5 5 4 4 3 3 3 2 1 1 1 2 3 2 1 1 1 1 1 1 1 1 0 1
2 1 1 1 1 6 3 2 1 5 6 5 5 5 5 6 6 6 5 5 5 5 5 4 3 4 3 2 1 1 2 3 2 1 1 1 1 1 1 1 1 0 0 0
4 5 4 6 6 6 3 4 5 4 5 6 5 6 5 5 6 5 4 4 4 4 4 3 3 4 3 2 1 2 3 2 1 1 1 1 0 1 1 1 1 0 0 0
3 1 2 4 7 6 7 6 5 5 6 7 6 6 4 5 5 5 4 4 4 4 4 3 3 3 4 3 2 2 2 1 0 0 1 1 0 0 0 1 1 1 1 1
5 2 2 5 7 7 6 5 6 7 7 6 5 5 4 4 5 4 4 4 4 3 3 2 2 3 4 4 3 3 1 0 0 1 1 1 1 1 1 1 1 2 3 3
5 6 5 6 6 4 8 7 7 7 7 6 5 5 5 4 4 4 3 3 3 3 3 3 3 4 4 3 3 3 1 1 1 1 1 1 1 1 1 1 1 1 2 4
Wind_Direction
53 62 267 247 214 217 233 268 286 279 284 35 16 356 353 15 36 22 6 356 334 284 277 293 129 154 154 165 168 172 165 165 151 151 161 165 191 205 213 218 211 203 201 197
33 303 262 251 228 198 220 286 292 302 347 85 69 15 12 33 32 30 7 346 328 321 345 344 212 185 176 174 174 174 173 170 169 171 165 160 167 188 210 241 237 221 217 210
197 260 314 30 12 12 289 239 268 280 341 40 49 355 357 359 15 19 15 8 350 311 283 272 228 216 181 174 171 177 183 179 172 159 134 118 98 69 66 264 263 250 225 214
257 302 358 12 347 8 296 281 269 289 34 326 45 303 316 335 352 1 354 349 336 326 303 294 272 230 205 187 178 178 180 175 172 162 156 159 175 199 215 211 216 255 234 215
327 347 16 1 318 308 271 331 4 24 120 32 16 98 298 346 347 335 333 337 331 335 342 331 317 252 199 157 165 169 161 163 172 171 170 169 189 205 203 185 187 251 291 230
312 331 20 303 321 347 336 30 38 43 62 25 321 118 298 320 311 319 327 334 338 346 3 2 358 359 78 114 128 135 143 161 176 176 179 180 188 187 182 189 204 224 246 263
344 346 347 357 358 1 34 54 22 3 8 276 310 95 258 296 311 310 312 320 336 347 356 358 358 352 344 128 152 155 162 180 179 180 188 195 195 192 197 201 203 202 219 237
8 325 335 359 11 321 12 103 133 231 256 291 333 251 258 321 331 332 329 329 346 350 347 343 342 325 315 269 181 169 177 196 182 182 196 205 200 198 202 201 201 204 216 230
358 290 315 349 355 76 41 45 153 143 278 297 296 303 311 352 352 349 347 347 342 339 337 337 335 325 307 263 217 195 191 205 192 193 202 212 202 196 199 196 199 212 223 229
155 288 312 324 21 26 81 122 66 79 63 296 302 308 306 327 330 334 336 332 329 334 337 338 333 325 307 278 230 191 187 206 203 189 201 225 218 203 196 193 208 222 235 236
77 112 321 360 27 341 14 38 69 89 147 177 294 287 287 305 314 320 320 321 326 331 337 337 332 321 313 328 55 181 186 191 195 188 190 204 219 200 189 194 216 232 251 242
69 104 315 292 293 318 93 90 117 99 291 186 225 275 305 321 317 322 328 332 331 328 335 341 334 325 322 331 328 235 187 190 216 203 176 180 221 205 200 220 237 240 256 259
86 85 15 345 348 2 24 18 74 116 110 150 235 276 316 340 338 336 333 327 330 336 342 349 345 333 323 322 302 299 248 221 216 187 161 157 213 221 221 236 255 253 259 265
103 99 150 208 254 296 321 336 18 98 117 264 248 277 309 328 329 328 328 324 326 336 342 346 338 332 331 323 305 298 302 226 180 162 159 157 215 229 225 234 249 265 262 250
81 108 229 245 263 286 309 315 337 247 216 225 273 281 291 309 310 309 315 323 335 343 342 339 334 334 335 339 333 339 333 310 150 152 168 206 215 209 205 255 277 298 294 259
62 108 347 301 296 326 324 330 335 309 273 263 291 287 290 309 319 324 323 327 331 334 332 329 330 333 334 337 337 340 334 333 134 158 213 232 209 154 136 272 326 22 11 19
71 116 76 292 312 351 313 286 289 286 272 256 275 281 312 325 325 314 309 313 314 321 324 324 323 323 325 321 316 313 319 330 139 169 201 171 78 84 129 65 65 51 30 35
138 117 127 309 5 282 252 256 252 272 268 256 274 296 307 301 300 294 290 300 311 317 323 320 318 319 318 315 310 319 336 348 136 149 171 356 86 90 79 75 64 43 55 47
142 136 118 105 298 285 298 313 287 264 286 298 299 307 317 322 328 318 312 319 302 302 304 303 306 306 307 317 314 350 346 1 106 210 236 239 203 159 110 91 100 81 70 12
61 91 112 122 211 267 268 306 304 162 294 304 314 308 320 342 340 299 309 319 313 313 311 312 320 323 322 320 338 358 322 322 265 254 243 234 209 181 189 211 187 105 108 301
16 31 107 175 229 267 275 306 13 60 280 301 298 295 298 284 256 276 300 307 304 305 305 315 325 326 313 314 351 322 298 267 267 272 268 241 208 196 192 171 147 142 107 15
204 198 222 156 225 269 307 16 156 241 272 286 285 280 278 282 286 292 299 301 308 315 317 324 330 322 319 321 336 310 280 272 288 321 318 279 235 227 175 154 160 103 110 8
212 198 197 197 223 256 274 250 256 252 272 276 270 280 278 285 290 295 294 298 304 305 309 315 312 315 318 313 277 260 283 292 298 356 313 289 247 199 172 165 178 194 188 224
280 170 190 266 272 277 280 279 281 274 269 276 276 283 270 272 283 290 294 299 306 304 300 308 313 315 310 304 294 262 282 291 154 265 302 307 233 254 223 184 192 197 221 238
249 226 237 265 281 300 290 282 293 298 296 294 290 282 265 264 274 276 283 289 290 294 297 297 292 294 298 307 309 302 295 68 149 250 279 292 250 217 233 226 224 219 230 218
217 198 202 242 249 246 272 283 294 291 287 285 287 294 290 263 261 274 277 279 284 289 297 303 296 292 296 302 300 301 289 175 168 234 251 257 256 241 219 222 299 288 252 266